TimeMDT,TemperatureF,Dew PointF,Humidity,Sea Level PressureIn,VisibilityMPH,Wind Direction,Wind SpeedMPH,Gust SpeedMPH,PrecipitationIn,Events,Conditions,WindDirDegrees,DateUTC
12:00 AM,70,53,44,29.80,15,Calm,Calm,,,,Scattered Clouds,,2013-06-22 06:00:00
12:00 AM,69.8,53.6,56,29.80,15.0,Calm,Calm,-,N/A,,Scattered Clouds,0,2013-06-22 06:00:00
1:00 AM,66.2,53.6,64,29.79,15.0,Calm,Calm,-,N/A,,Scattered Clouds,0,2013-06-22 07:00:00
2:00 AM,68.0,51.8,56,29.78,15.0,SSE,3.5,-,N/A,,Scattered Clouds,160,2013-06-22 08:00:00
3:00 AM,68.0,50.0,52,29.77,15.0,SSE,5.8,-,N/A,,Mostly Cloudy,160,2013-06-22 09:00:00
4:00 AM,68.0,48.2,49,29.76,15.0,SSE,5.8,-,N/A,,Mostly Cloudy,150,2013-06-22 10:00:00
5:00 AM,62.6,50.0,63,29.76,15.0,ESE,2.3,-,N/A,,Overcast,120,2013-06-22 11:00:00
6:00 AM,63,48,48,29.76,15,ESE,2.3,,,,Partly Cloudy,110,2013-06-22 12:00:00
6:00 AM,62.6,48.2,59,29.76,15.0,ESE,2.3,-,N/A,,Mostly Cloudy,110,2013-06-22 12:00:00
7:00 AM,66.2,50.0,56,29.77,15.0,SE,4.6,-,N/A,,Scattered Clouds,140,2013-06-22 13:00:00
8:00 AM,68.0,50.0,52,29.76,15.0,ESE,4.6,-,N/A,,Mostly Cloudy,120,2013-06-22 14:00:00
9:00 AM,71.6,51.8,50,29.75,15.0,South,4.6,-,N/A,,Mostly Cloudy,170,2013-06-22 15:00:00
10:00 AM,75.2,51.8,44,29.75,15.0,South,4.6,-,N/A,,Scattered Clouds,170,2013-06-22 16:00:00
11:00 AM,78.8,55.4,44,29.75,15.0,SE,4.6,-,N/A,,Partly Cloudy,130,2013-06-22 17:00:00
12:00 PM,80,54,31,29.75,15,SE,4.6,,,,Scattered Clouds,130,2013-06-22 18:00:00
12:00 PM,80.6,55.4,42,29.75,15.0,SE,4.6,-,N/A,,Partly Cloudy,130,2013-06-22 18:00:00
1:00 PM,80.6,51.8,37,29.75,15.0,WNW,4.6,-,N/A,,Partly Cloudy,300,2013-06-22 19:00:00
2:00 PM,82.4,51.8,35,29.75,15.0,NW,5.8,-,N/A,,Partly Cloudy,310,2013-06-22 20:00:00
3:00 PM,86.0,51.8,31,29.73,15.0,North,4.6,-,N/A,,Partly Cloudy,360,2013-06-22 21:00:00
4:00 PM,87.8,50.0,27,29.72,15.0,NNE,5.8,-,N/A,,Partly Cloudy,30,2013-06-22 22:00:00
5:00 PM,87.8,53.6,31,29.71,15.0,NNE,5.8,-,N/A,,Partly Cloudy,30,2013-06-22 23:00:00
6:00 PM,87,53,21,29.70,15,NNW,5.8,,,,Scattered Clouds,330,2013-06-23 00:00:00
6:00 PM,87.8,53.6,31,29.70,15.0,NNW,5.8,-,N/A,,Partly Cloudy,330,2013-06-23 00:00:00
7:00 PM,87.8,53.6,31,29.70,15.0,NW,9.2,-,N/A,,Partly Cloudy,320,2013-06-23 01:00:00
8:00 PM,86.0,53.6,33,29.70,15.0,NNW,6.9,-,N/A,,Partly Cloudy,330,2013-06-23 02:00:00
9:00 PM,84.2,55.4,37,29.69,15.0,NNW,4.6,-,N/A,,Partly Cloudy,340,2013-06-23 03:00:00
10:00 PM,82.4,59.0,45,29.70,15.0,North,3.5,-,N/A,,Partly Cloudy,360,2013-06-23 04:00:00
11:00 PM,77.0,59.0,54,29.70,15.0,Calm,Calm,-,N/A,,Partly Cloudy,0,2013-06-23 05:00:00